TimeCST,TemperatureF,Dew PointF,Humidity,Sea Level PressureIn,VisibilityMPH,Wind Direction,Wind SpeedMPH,Gust SpeedMPH,PrecipitationIn,Events,Conditions,WindDirDegrees,DateUTC
12:04 AM,57.2,51.8,82,30.13,9.0,NW,13.8,-,N/A,,Overcast,320,2013-01-02 06:04:00
12:53 AM,55.9,51.1,84,30.12,9.0,NNW,15.0,-,0.00,Rain,Light Rain,330,2013-01-02 06:53:00
1:53 AM,55.0,51.1,86,30.13,5.0,NNW,15.0,-,0.03,Rain,Rain,340,2013-01-02 07:53:00
2:49 AM,53.6,50.0,88,30.13,7.0,NNW,17.3,-,0.04,Rain,Light Rain,340,2013-01-02 08:49:00
2:53 AM,54.0,50.0,86,30.14,7.0,NNW,16.1,-,0.05,Rain,Light Rain,340,2013-01-02 08:53:00
3:31 AM,53.6,48.2,82,30.14,7.0,NNW,16.1,-,0.00,,Overcast,340,2013-01-02 09:31:00
3:53 AM,53.1,48.9,86,30.15,7.0,NNW,16.1,-,0.00,Rain,Light Rain,340,2013-01-02 09:53:00
4:39 AM,51.8,48.2,88,30.14,8.0,NNW,17.3,-,0.00,,Overcast,340,2013-01-02 10:39:00
4:53 AM,52.0,46.9,83,30.14,8.0,NNW,16.1,-,0.00,,Overcast,340,2013-01-02 10:53:00
6:53 AM,50.0,46.9,89,30.19,6.0,NNW,16.1,-,0.02,Rain,Light Rain,340,2013-01-02 12:53:00
7:53 AM,50.0,46.9,89,30.20,5.0,NNW,13.8,-,0.03,Rain,Light Rain,340,2013-01-02 13:53:00
8:53 AM,50.0,46.9,89,30.25,5.0,NNW,12.7,-,0.04,Rain,Light Rain,330,2013-01-02 14:53:00
9:53 AM,50.0,46.0,86,30.27,6.0,NNW,15.0,-,0.00,,Overcast,330,2013-01-02 15:53:00
10:53 AM,48.9,46.0,90,30.26,5.0,NNW,12.7,-,0.00,,Overcast,340,2013-01-02 16:53:00
11:53 AM,48.0,45.0,89,30.24,5.0,NNW,15.0,-,0.00,Rain,Light Rain,340,2013-01-02 17:53:00
12:53 PM,48.0,45.0,89,30.19,5.0,NNW,18.4,-,0.00,,Overcast,340,2013-01-02 18:53:00
1:53 PM,46.9,44.1,90,30.19,6.0,NNW,17.3,-,N/A,,Overcast,330,2013-01-02 19:53:00
2:53 PM,46.9,43.0,86,30.18,6.0,NNW,17.3,-,N/A,,Overcast,340,2013-01-02 20:53:00
3:15 PM,46.4,42.8,87,30.19,6.0,NNW,17.3,-,N/A,,Overcast,340,2013-01-02 21:15:00
3:28 PM,46.4,42.8,87,30.18,6.0,NNW,16.1,-,N/A,,Overcast,340,2013-01-02 21:28:00
3:49 PM,46.4,44.6,93,30.19,6.0,NNW,15.0,-,N/A,,Overcast,330,2013-01-02 21:49:00
3:53 PM,46.9,44.1,90,30.19,5.0,NNW,16.1,-,N/A,,Overcast,330,2013-01-02 21:53:00
4:12 PM,46.4,42.8,87,30.20,5.0,NW,17.3,-,0.00,Rain,Light Rain,320,2013-01-02 22:12:00
4:46 PM,46.4,42.8,87,30.22,5.0,NW,16.1,-,0.00,Rain,Light Rain,320,2013-01-02 22:46:00
4:53 PM,46.0,43.0,89,30.21,5.0,NW,18.4,-,0.00,Rain,Light Rain,310,2013-01-02 22:53:00
5:37 PM,44.6,42.8,93,30.21,5.0,NW,18.4,-,0.02,Rain,Light Rain,320,2013-01-02 23:37:00
5:53 PM,45.0,42.1,90,30.22,5.0,NW,17.3,-,0.04,Rain,Rain,310,2013-01-02 23:53:00
6:22 PM,44.6,42.8,93,30.23,5.0,NW,17.3,-,0.03,Rain,Rain,320,2013-01-03 00:22:00
6:27 PM,44.6,42.8,93,30.23,5.0,NW,18.4,-,0.03,Rain,Rain,320,2013-01-03 00:27:00
6:53 PM,45.0,42.1,90,30.23,5.0,NW,16.1,-,0.06,Rain,Rain,320,2013-01-03 00:53:00
7:30 PM,44.6,42.8,93,30.25,6.0,NNW,18.4,-,0.02,Rain,Light Rain,330,2013-01-03 01:30:00
7:53 PM,44.1,42.1,93,30.25,6.0,NNW,15.0,-,0.03,Rain,Light Rain,330,2013-01-03 01:53:00
8:21 PM,44.6,42.8,93,30.24,7.0,NNW,12.7,-,0.00,Rain,Light Rain,340,2013-01-03 02:21:00
8:53 PM,45.0,42.1,90,30.24,6.0,NNW,12.7,-,0.00,Rain,Light Rain,340,2013-01-03 02:53:00
9:04 PM,44.6,42.8,93,30.25,5.0,NNW,15.0,-,0.01,Rain,Light Rain,330,2013-01-03 03:04:00
9:09 PM,44.6,42.8,93,30.25,5.0,NNW,15.0,-,0.02,Rain,Rain,330,2013-01-03 03:09:00
9:53 PM,44.1,42.1,93,30.26,6.0,NW,19.6,-,0.03,,Overcast,320,2013-01-03 03:53:00
10:30 PM,44.6,41.0,87,30.27,7.0,NW,18.4,-,N/A,,Overcast,320,2013-01-03 04:30:00
10:53 PM,44.1,42.1,93,30.27,7.0,NNW,15.0,-,N/A,,Overcast,330,2013-01-03 04:53:00
11:53 PM,45.0,42.1,90,30.25,7.0,NNW,12.7,-,N/A,,Overcast,330,2013-01-03 05:53:00